Wind_Speed
33 33 32 32 32 31 30 30 29 29 28 27 26 25 25 24 24 24 25 26 26 27 27 28 29 29 29 30 30 30 31 31 31 32 32 32 33 34 34 34 35 35 35
35 34 34 33 33 32 31 31 30 30 29 28 27 26 26 26 25 26 27 27 28 28 29 29 29 30 30 31 31 32 32 32 33 33 33 34 34 35 35 35 36 37 37
35 35 35 35 34 33 33 32 31 31 30 29 27 27 28 27 27 28 28 28 29 30 30 30 30 31 31 32 32 32 33 33 34 34 35 35 36 36 37 37 38 38 38
36 35 36 36 35 34 34 33 33 32 31 30 29 29 29 29 29 29 29 30 30 31 31 31 31 32 32 33 33 33 33 34 35 35 36 36 37 38 38 39 38 38 39
37 36 36 36 35 35 34 34 33 32 32 32 31 30 30 30 29 29 30 31 31 31 32 32 32 33 34 34 34 34 34 35 35 36 37 37 38 38 39 39 39 39 40
37 36 36 36 36 36 35 35 34 34 33 33 32 30 30 29 29 30 31 32 32 32 33 33 34 34 35 35 35 35 35 36 37 37 38 38 39 39 40 40 40 40 41
38 37 36 36 36 36 36 36 35 35 35 34 33 31 30 30 30 31 32 33 34 34 34 34 35 35 35 35 35 35 36 37 38 38 39 39 40 41 41 41 41 42 42
38 37 37 37 37 37 37 36 36 35 35 35 34 33 32 31 31 32 33 34 34 34 35 35 35 35 35 36 36 37 38 38 39 39 40 41 41 42 42 42 43 43 44
39 38 38 38 39 38 36 37 38 37 37 36 35 34 34 32 32 33 33 34 35 35 35 35 35 36 36 36 36 37 38 39 40 40 41 41 42 42 43 43 44 45 45
40 40 39 39 40 39 38 37 37 38 37 36 35 36 35 35 35 34 34 35 35 35 36 36 36 36 36 37 37 37 38 39 40 41 41 42 42 43 44 44 45 45 46
42 41 40 39 39 40 39 39 38 37 37 37 36 37 37 36 36 35 35 35 35 36 36 37 37 37 37 38 38 38 39 40 41 42 42 43 43 44 44 45 46 46 47
43 43 42 40 39 40 40 39 40 38 37 36 36 36 37 38 37 36 36 37 37 37 37 37 37 37 38 39 39 40 40 42 42 42 43 43 44 44 45 46 47 47 48
45 44 44 43 42 41 40 40 40 39 38 37 36 37 38 39 38 38 38 38 37 38 38 37 37 38 39 39 40 41 42 42 43 43 43 44 44 45 46 47 47 47 48
45 45 45 44 43 43 43 41 40 39 38 38 37 38 38 38 39 39 39 38 38 37 37 38 38 39 40 41 42 42 43 43 43 43 43 44 44 45 46 47 47 48 48
45 44 44 44 43 43 43 41 40 40 39 38 37 38 38 38 39 39 39 38 38 37 37 38 39 40 41 41 42 42 43 43 43 44 44 44 45 46 46 47 47 48 48
45 45 45 44 43 43 42 42 41 40 39 39 40 39 38 39 40 40 40 39 38 38 37 38 40 40 41 41 42 42 42 42 43 43 43 44 45 46 47 48 48 48 47
43 43 45 45 44 43 43 43 42 42 40 39 40 39 39 40 40 40 40 39 39 38 38 38 39 40 41 41 41 41 41 41 42 43 44 45 46 47 48 48 47 46 45
44 44 43 43 43 43 43 42 42 42 41 40 40 40 40 40 40 39 39 39 39 38 39 38 39 39 40 41 41 40 40 41 42 43 44 45 47 48 48 47 45 44 43
43 43 43 43 43 42 41 42 42 42 41 41 41 41 40 41 40 39 39 39 39 39 39 40 39 39 40 40 40 40 40 41 42 42 44 45 46 46 46 44 43 42 42
42 42 43 42 42 42 41 41 41 40 40 40 40 40 40 40 40 39 39 39 40 40 40 39 39 39 39 39 39 39 40 40 41 42 43 44 45 44 43 41 41 41 41
41 42 42 42 41 41 41 40 41 40 40 39 38 38 38 39 39 39 39 39 40 39 39 38 38 38 38 38 39 39 40 40 41 41 42 42 42 42 41 40 40 40 40
39 40 40 40 40 40 39 39 39 40 39 38 37 37 37 38 38 38 38 39 39 38 38 39 39 38 38 39 39 39 40 40 40 41 41 40 41 40 39 38 38 38 38
37 37 37 38 40 40 39 38 38 39 38 37 35 35 36 37 37 36 37 37 37 37 37 37 37 37 37 38 38 39 40 41 40 40 39 39 39 39 37 36 36 36 36
37 36 36 36 37 38 39 39 37 36 36 36 36 36 36 37 37 36 34 34 34 35 35 35 36 37 37 37 38 39 39 39 38 39 39 38 37 36 34 34 34 34 33
35 35 34 34 35 36 38 38 37 36 36 36 36 36 36 36 35 34 34 34 34 35 35 35 35 36 36 37 38 38 37 37 36 36 36 36 34 32 31 32 31 31 31
33 33 34 34 33 34 35 35 36 36 35 35 35 35 35 34 33 33 33 34 34 34 34 34 34 34 35 36 36 36 36 35 34 34 34 33 31 31 30 29 29 28 28
Wind_Direction
251 252 251 251 251 253 254 255 256 258 260 263 266 269 271 274 278 281 284 286 288 291 293 294 296 296 297 299 300 300 300 301 301 301 301 301 302 303 303 302 302 302 300
251 252 251 251 252 253 255 255 256 258 259 262 265 268 271 273 277 281 283 286 289 291 293 294 294 295 296 298 299 299 299 300 301 301 301 301 301 302 302 302 302 301 300
251 252 252 251 252 254 255 256 256 257 259 261 264 267 270 274 277 281 283 286 289 291 292 293 294 294 295 297 299 299 299 300 300 300 300 300 301 302 302 302 302 301 301
250 251 252 251 252 254 255 255 256 257 259 260 263 267 270 273 277 279 282 285 288 290 291 292 293 294 295 296 297 298 299 300 300 300 300 300 300 301 301 302 301 301 301
251 252 252 251 251 253 255 255 256 257 259 260 262 267 270 273 275 278 283 286 288 289 290 291 292 293 294 295 296 298 299 300 300 301 300 300 301 301 301 302 301 301 301
250 252 252 250 251 252 254 255 256 258 259 261 262 265 269 272 275 278 282 285 287 288 289 290 291 293 294 295 297 298 299 299 300 301 301 301 301 301 301 301 301 301 302
250 251 252 250 251 253 254 256 257 258 259 260 262 264 269 271 274 278 282 284 287 287 288 289 290 292 293 294 296 298 300 300 300 301 301 302 302 302 302 302 301 301 302
249 250 252 250 250 252 255 257 259 258 260 261 262 265 268 271 274 277 281 284 286 287 288 289 291 292 292 294 296 297 299 300 301 301 302 302 302 302 302 302 301 301 301
248 250 251 250 250 252 255 257 258 260 261 262 262 265 267 269 273 277 281 283 285 287 288 289 291 293 294 295 296 297 298 299 301 302 302 302 302 303 302 302 302 302 301
247 249 251 251 251 252 254 257 259 260 261 261 262 264 268 271 274 277 280 283 285 287 288 289 290 292 294 295 296 297 298 300 301 302 302 303 303 303 303 303 303 302 302
247 249 250 251 252 253 255 258 259 261 261 263 265 266 267 271 275 278 281 283 284 286 287 289 290 291 293 294 294 296 298 300 300 302 302 302 303 303 303 303 303 302 302
247 248 249 250 251 254 255 258 259 261 263 264 266 267 269 271 275 278 280 282 284 286 287 289 290 291 292 294 296 297 299 300 301 301 302 302 302 303 303 303 303 303 303
247 249 251 251 252 253 255 258 259 261 263 263 265 267 269 272 276 278 281 282 284 286 286 288 290 290 292 293 295 297 299 300 300 301 301 302 303 303 304 304 304 304 304
247 249 250 250 252 254 255 258 260 261 262 264 266 268 271 274 276 277 280 282 284 285 286 287 289 291 292 293 295 297 298 299 300 301 302 302 303 304 305 305 305 306 305
246 248 249 250 251 253 255 257 258 259 262 264 265 268 271 274 278 278 278 281 284 285 285 286 289 290 292 294 295 297 298 300 300 302 302 302 303 304 306 306 306 307 306
248 249 249 248 249 252 254 256 257 259 260 262 266 269 272 276 276 278 279 280 282 285 286 288 290 291 293 294 295 297 298 300 301 302 302 303 304 305 306 307 308 307 306
249 250 249 249 250 252 254 255 257 259 260 263 265 268 272 275 276 277 278 279 281 283 286 288 290 292 293 295 297 298 299 301 302 303 303 304 305 307 308 308 308 307 307
250 250 249 250 251 253 255 257 257 259 260 263 265 269 272 273 274 275 277 279 281 283 286 288 291 293 293 295 297 298 300 301 302 303 304 305 306 308 309 308 308 308 309
251 251 250 251 253 254 256 256 257 260 261 263 266 269 270 272 272 274 277 278 281 283 286 289 292 294 294 296 297 299 301 302 303 304 305 306 307 309 310 309 308 309 309
252 252 251 252 253 253 255 256 257 259 261 263 266 268 270 271 272 273 275 279 281 283 286 290 293 295 295 297 298 299 301 302 303 304 306 307 308 310 310 309 309 310 310
251 253 253 253 252 252 254 255 256 259 262 264 265 267 269 271 272 274 276 278 282 285 288 290 293 294 295 296 298 299 300 302 302 303 305 307 309 310 311 309 310 311 312
250 252 253 252 251 251 252 253 256 258 260 262 263 265 267 270 273 275 277 279 282 285 288 290 292 293 295 297 298 299 301 302 302 303 305 307 308 310 311 310 311 312 313
249 248 249 250 251 251 252 254 256 256 258 259 262 265 269 272 274 275 278 280 283 286 289 290 291 293 295 296 298 300 301 303 303 304 305 308 309 311 310 311 313 314 315
247 248 249 250 251 251 252 253 253 255 257 259 262 265 269 272 273 275 277 280 282 285 287 289 291 293 295 297 299 301 302 303 304 304 306 308 309 310 311 312 314 316 317
247 247 247 249 251 251 251 251 252 256 258 259 261 265 268 271 272 274 276 279 281 283 286 288 289 292 294 297 299 300 301 303 305 306 306 308 309 310 311 314 314 316 318
248 247 247 249 250 250 250 251 254 258 259 260 263 265 268 270 271 273 275 277 280 282 284 286 288 291 294 297 300 301 301 303 305 306 307 308 309 310 312 313 314 317 319
Height
5802 5804 5806 5808 5810 5812 5813 5815 5817 5819 5820 5822 5822 5823 5823 5823 5823 5823 5823 5822 5821 5820 5818 5816 5815 5813 5811 5809 5807 5805 5803 5800 5798 5795 5792 5790 5787 5784 5781 5778 5775 5772 5769
5795 5797 5799 5801 5803 5805 5807 5808 5810 5812 5814 5815 5816 5817 5817 5817 5817 5817 5817 5816 5815 5814 5812 5810 5808 5807 5805 5803 5801 5798 5796 5794 5791 5788 5785 5783 5780 5777 5774 5771 5768 5765 5761
5787 5790 5792 5794 5796 5798 5800 5802 5804 5805 5807 5809 5810 5811 5811 5811 5811 5811 5810 5810 5809 5807 5806 5804 5802 5800 5798 5796 5794 5791 5789 5787 5784 5781 5778 5775 5772 5769 5766 5763 5759 5756 5753
5779 5782 5784 5786 5788 5790 5793 5795 5797 5798 5800 5802 5803 5804 5805 5805 5805 5805 5804 5803 5802 5801 5799 5797 5795 5793 5791 5789 5787 5784 5782 5779 5776 5774 5771 5768 5765 5761 5758 5754 5751 5748 5744
5771 5773 5776 5778 5781 5783 5785 5787 5789 5791 5793 5795 5796 5798 5798 5799 5799 5798 5797 5796 5795 5794 5792 5790 5788 5786 5784 5782 5779 5777 5774 5772 5769 5766 5763 5760 5756 5753 5749 5746 5742 5739 5735
5763 5765 5768 5770 5772 5775 5778 5780 5782 5784 5785 5787 5789 5790 5791 5791 5791 5791 5790 5789 5788 5786 5784 5783 5781 5779 5776 5774 5772 5769 5766 5763 5761 5758 5754 5751 5748 5744 5740 5737 5733 5730 5726
5755 5758 5760 5763 5765 5768 5770 5772 5774 5776 5778 5779 5781 5783 5784 5784 5784 5783 5782 5781 5780 5778 5777 5775 5773 5771 5768 5766 5764 5761 5758 5755 5752 5749 5746 5742 5739 5735 5731 5728 5724 5720 5716
5747 5750 5752 5755 5758 5760 5762 5764 5766 5767 5770 5771 5773 5774 5776 5777 5776 5776 5775 5774 5772 5770 5768 5766 5764 5762 5760 5758 5756 5753 5750 5747 5744 5740 5737 5733 5730 5726 5722 5718 5714 5710 5706
5738 5741 5744 5746 5749 5752 5754 5756 5758 5760 5762 5763 5765 5766 5767 5768 5768 5768 5767 5765 5764 5762 5760 5758 5756 5754 5751 5749 5747 5744 5741 5738 5735 5731 5728 5724 5720 5716 5712 5708 5704 5699 5695
5730 5733 5735 5738 5741 5743 5746 5747 5749 5752 5753 5755 5756 5757 5759 5759 5760 5760 5759 5757 5756 5754 5752 5751 5748 5746 5744 5741 5739 5736 5733 5729 5726 5723 5719 5715 5711 5706 5702 5698 5693 5689 5684
5721 5724 5727 5730 5732 5735 5737 5739 5741 5743 5744 5746 5748 5749 5750 5750 5750 5751 5751 5750 5748 5746 5744 5742 5740 5738 5736 5733 5730 5727 5724 5721 5717 5713 5709 5705 5701 5697 5692 5687 5682 5678 5673
5712 5715 5718 5721 5723 5726 5728 5731 5733 5735 5736 5738 5739 5740 5741 5742 5742 5742 5742 5741 5740 5738 5736 5734 5732 5730 5727 5725 5722 5719 5715 5712 5708 5704 5700 5696 5691 5687 5681 5676 5671 5666 5661
5703 5706 5709 5712 5715 5717 5720 5722 5724 5726 5728 5729 5730 5732 5732 5733 5733 5733 5732 5732 5731 5730 5728 5726 5724 5721 5719 5716 5713 5710 5706 5702 5698 5694 5690 5686 5681 5676 5671 5666 5660 5655 5649
5693 5696 5700 5702 5705 5708 5711 5713 5716 5717 5719 5720 5722 5723 5724 5724 5724 5724 5723 5723 5722 5721 5719 5717 5715 5712 5710 5707 5704 5701 5697 5693 5688 5684 5680 5675 5671 5665 5660 5655 5649 5643 5638
5683 5686 5689 5693 5696 5699 5701 5704 5707 5709 5710 5712 5713 5714 5714 5715 5715 5715 5714 5713 5713 5712 5712 5709 5706 5703 5700 5697 5694 5691 5687 5683 5678 5674 5670 5665 5660 5655 5649 5644 5638 5632 5626
5674 5677 5680 5683 5686 5689 5692 5695 5697 5699 5700 5702 5704 5704 5705 5705 5705 5705 5705 5704 5703 5703 5702 5700 5697 5694 5691 5688 5685 5681 5677 5673 5669 5664 5659 5655 5650 5644 5639 5633 5627 5621 5615
5664 5667 5670 5673 5676 5679 5682 5685 5687 5689 5691 5693 5694 5695 5695 5696 5696 5696 5696 5695 5694 5693 5692 5691 5687 5684 5681 5678 5675 5671 5667 5663 5659 5654 5649 5644 5639 5634 5628 5621 5615 5609 5603
5654 5657 5660 5664 5667 5670 5672 5675 5677 5679 5681 5683 5684 5685 5686 5686 5687 5687 5686 5686 5685 5683 5683 5682 5679 5675 5672 5668 5665 5662 5658 5654 5650 5645 5639 5634 5629 5623 5617 5610 5604 5598 5593
5645 5647 5650 5654 5657 5660 5663 5665 5668 5670 5672 5673 5674 5675 5676 5677 5677 5677 5677 5676 5675 5674 5673 5671 5669 5666 5663 5659 5656 5652 5649 5645 5640 5635 5630 5625 5619 5612 5606 5600 5594 5588 5583
5635 5638 5641 5644 5647 5650 5653 5656 5658 5660 5662 5664 5665 5666 5667 5667 5667 5667 5667 5667 5666 5665 5663 5661 5659 5657 5653 5649 5646 5643 5640 5636 5631 5626 5620 5615 5609 5602 5596 5590 5585 5579 5574
5626 5629 5632 5635 5638 5641 5643 5646 5649 5651 5653 5654 5655 5656 5657 5658 5658 5658 5658 5657 5656 5655 5654 5652 5650 5647 5644 5640 5637 5634 5631 5627 5622 5616 5612 5606 5600 5594 5587 5581 5575 5570 5564
5617 5620 5623 5626 5629 5631 5634 5636 5639 5642 5643 5645 5646 5647 5648 5649 5649 5648 5648 5647 5647 5646 5644 5643 5641 5638 5635 5631 5628 5624 5621 5618 5614 5609 5603 5598 5591 5586 5579 5573 5567 5561 5556
5608 5611 5614 5617 5620 5622 5625 5627 5630 5632 5634 5636 5637 5638 5639 5640 5640 5639 5639 5638 5637 5636 5635 5633 5631 5628 5625 5622 5619 5616 5611 5607 5603 5598 5593 5589 5583 5577 5571 5565 5559 5554 5548
5599 5602 5605 5608 5611 5613 5616 5618 5621 5623 5625 5627 5628 5630 5631 5631 5631 5631 5630 5630 5628 5627 5625 5624 5622 5619 5616 5613 5609 5606 5602 5598 5594 5588 5583 5580 5575 5570 5564 5558 5553 5547 5542
5591 5593 5596 5599 5602 5604 5607 5610 5612 5615 5616 5618 5619 5620 5621 5622 5622 5622 5622 5622 5620 5618 5616 5614 5612 5609 5606 5603 5599 5596 5593 5589 5586 5581 5575 5571 5567 5562 5558 5552 5547 5541 5536
5582 5585 5587 5590 5593 5595 5598 5601 5603 5606 5608 5609 5611 5611 5612 5613 5613 5612 5613 5612 5611 5609 5608 5606 5604 5601 5598 5594 5590 5587 5583 5580 5576 5573 5568 5564 5559 5555 5552 5547 5541 5536 5531